sat.trackr.live / text

‹ back to catalog

STARLINK-38065

NORAD 69982 · 2026-159H

PAYLOAD ACTIVE UNKNOWN

§ Identity

Operator
Country
US
Launch date
2026-07-11
Launch site
AFWTR
Launch vehicle
Mass (kg)
RCS (m²)

Purposes: comms

External: N2YO · Heavens-Above · Gunter

§ Orbital elements

Epoch: 2026-09-20T00:44:19.823136Z

Period
92.95 min
Inclination
97.2868°
Eccentricity
0.0003042
Mean motion
15.49234733 rev/d
Perigee alt
416.9 km
Apogee alt
421.0 km
Semi-major
6,797.1 km
B*
8.0848e-4
RAAN
104.8299°
Arg perigee
85.7549°
Mean anomaly
274.4050°
Rev number
1,237

§ Raw data

STARLINK-380651 69982U 26159H   26263.03078499  .00044204  00000+0  80848-3 0  99902 69982  97.2868 104.8299 0003042  85.7549 274.4050 15.49234733 12372

JSON: /api/v1/satellites/69982 · /tle

For live sub-satellite position, see the globe view (requires WebGL).

§ Visibility from observer

Set your observer location to see the next 7 days of passes ≥ 10°. The values pass through the URL so the page stays shareable.

No JS? Fill the form by hand. The geolocation button needs JavaScript.